Simultaneous Nadir Overpasses (SNOs) Predictions

Prediction of SNOs between METOP-A and TERRA Satellite Orbit:

Table of predicted SNOs for the next 14.0 days since TLE Epoch: 12/12/2015
Index Date (METOP-A) Time (METOP-A) Lat,Lon (METOP-A) SZA (METOP-A ) Date (TERRA) Time (TERRA) Lat,Lon (TERRA) SZA (TERRA ) Distance(km) Time Diff (sec)
1 12/13/2015 19:20:42 81.28, -63.54 107.16 12/13/2015 19:21:17 81.28, -63.43 107.19 1.91 35
2 12/13/2015 20:11:21 -81.29, 104.67 72.74 12/13/2015 20:10:43 -81.29, 104.53 72.77 2.34 38
3 12/16/2015 14:55:06 81.28, 2.94 107.29 12/16/2015 14:55:29 81.28, 3.01 107.30 1.39 23
4 12/16/2015 15:45:45 -81.29, 171.15 72.61 12/16/2015 15:44:55 -81.30, 171.00 72.65 2.62 50
5 12/19/2015 10:29:29 81.29, 69.77 107.39 12/19/2015 10:29:40 81.29, 69.73 107.40 0.79 11
6 12
